| time (UTC) | temp F | wind direction | speed MPH | gust MPH | rain 1hr in | rain 24hr in | rain mn in | humidity % | barometer mb |
| 20260903173904 | 58 | 199 | 4.0 | 8.0 | 0.06 | 0.30 | 0.14 | 94 | 1004.7 |
| 20260903173404 | 58 | 200 | 1.0 | 2.0 | 0.05 | 0.29 | 0.13 | 93 | 1004.7 |
| 20260903172904 | 58 | 200 | 1.0 | 6.0 | 0.02 | 0.26 | 0.10 | 93 | 1004.8 |
| 20260903172404 | 58 | 200 | 2.0 | 7.0 | 0.01 | 0.25 | 0.09 | 93 | 1004.8 |
| 20260903171904 | 58 | 200 | 2.0 | 10.0 | 0.01 | 0.25 | 0.09 | 93 | 1005.0 |
| 20260903170904 | 58 | 230 | 1.0 | 6.0 | 0.01 | 0.25 | 0.09 | 93 | 1005.0 |
| 20260903165904 | 58 | 213 | 2.0 | 7.0 | 0.01 | 0.25 | 0.09 | 92 | 1005.1 |
| 20260903165404 | 59 | 218 | 2.0 | 9.0 | 0.01 | 0.25 | 0.09 | 92 | 1005.1 |
| 20260903164903 | 59 | 221 | 3.0 | 10.0 | 0.00 | 0.24 | 0.09 | 91 | 1005.1 |
| 20260903164403 | 59 | 214 | 3.0 | 10.0 | 0.00 | 0.24 | 0.09 | 91 | 1005.2 |
| 20260903163903 | 59 | 215 | 6.0 | 12.0 | 0.00 | 0.24 | 0.09 | 91 | 1005.3 |
| 20260903163403 | 59 | 215 | 5.0 | 12.0 | 0.00 | 0.24 | 0.09 | 91 | 1005.3 |
| 20260903161404 | 59 | 203 | 1.0 | 9.0 | 0.00 | 0.24 | 0.09 | 92 | 1005.9 |
| 20260903160903 | 59 | 201 | 2.0 | 8.0 | 0.00 | 0.24 | 0.09 | 92 | 1006.0 |
| 20260903155904 | 59 | 188 | 1.0 | 5.0 | 0.00 | 0.24 | 0.09 | 93 | 1006.2 |
| 20260903155403 | 58 | 187 | 4.0 | 12.0 | 0.00 | 0.24 | 0.09 | 93 | 1006.3 |
| 20260903154903 | 58 | 209 | 1.0 | 7.0 | 0.00 | 0.24 | 0.09 | 94 | 1006.3 |
| 20260903154404 | 58 | 218 | 2.0 | 7.0 | 0.00 | 0.24 | 0.09 | 94 | 1006.3 |
| 20260903153903 | 58 | 196 | 1.0 | 5.0 | 0.00 | 0.24 | 0.09 | 94 | 1006.3 |
| 20260903153403 | 58 | 196 | 1.0 | 5.0 | 0.01 | 0.24 | 0.09 | 94 | 1006.4 |
| 20260903152904 | 58 | 196 | 2.0 | 8.0 | 0.01 | 0.24 | 0.09 | 93 | 1006.5 |
| 20260903152403 | 58 | 212 | 2.0 | 7.0 | 0.01 | 0.24 | 0.09 | 94 | 1006.5 |
| 20260903151903 | 58 | 211 | 0.0 | 6.0 | 0.01 | 0.24 | 0.09 | 94 | 1006.5 |
| 20260903151403 | 58 | 209 | 3.0 | 8.0 | 0.01 | 0.24 | 0.09 | 94 | 1006.7 |
| 20260903150903 | 59 | 202 | 3.0 | 7.0 | 0.02 | 0.24 | 0.09 | 95 | 1006.6 |
| 20260903150403 | 59 | 201 | 3.0 | 8.0 | 0.02 | 0.24 | 0.09 | 95 | 1006.8 |
| 20260903145903 | 59 | 215 | 2.0 | 8.0 | 0.02 | 0.24 | 0.09 | 95 | 1006.7 |
| 20260903145404 | 58 | 215 | 3.0 | 8.0 | 0.02 | 0.24 | 0.09 | 95 | 1006.8 |
| 20260903144904 | 58 | 217 | 2.0 | 7.0 | 0.02 | 0.24 | 0.09 | 96 | 1006.8 |
| 20260903144404 | 58 | 212 | 2.0 | 9.0 | 0.02 | 0.24 | 0.09 | 96 | 1006.7 |
| 20260903143905 | 58 | 211 | 2.0 | 6.0 | 0.04 | 0.24 | 0.09 | 96 | 1006.8 |
| 20260903143404 | 58 | 211 | 2.0 | 6.0 | 0.03 | 0.24 | 0.08 | 96 | 1007.0 |
| 20260903142904 | 58 | 211 | 0.0 | 5.0 | 0.03 | 0.24 | 0.08 | 96 | 1007.0 |
| 20260903142404 | 58 | 211 | 3.0 | 7.0 | 0.03 | 0.24 | 0.08 | 95 | 1007.2 |
| 20260903141404 | 58 | 211 | 2.0 | 7.0 | 0.03 | 0.24 | 0.08 | 95 | 1007.4 |
| 20260903135903 | 58 | 211 | 1.0 | 3.0 | 0.02 | 0.23 | 0.07 | 95 | 1007.3 |
| 20260903134405 | 58 | 211 | 1.0 | 3.0 | 0.02 | 0.22 | 0.06 | 93 | 1007.4 |
| 20260903133903 | 59 | 211 | 2.0 | 7.0 | 0.00 | 0.20 | 0.05 | 91 | 1007.2 |
| 20260903132904 | 59 | 217 | 3.0 | 9.0 | 0.00 | 0.20 | 0.05 | 89 | 1007.3 |
| 20260903132403 | 60 | 203 | 2.0 | 7.0 | 0.00 | 0.20 | 0.05 | 89 | 1007.2 |
| 20260903131903 | 60 | 203 | 3.0 | 7.0 | 0.00 | 0.20 | 0.05 | 90 | 1007.1 |
| 20260903131404 | 60 | 203 | 2.0 | 7.0 | 0.00 | 0.20 | 0.05 | 89 | 1007.1 |
| 20260903130903 | 60 | 205 | 3.0 | 8.0 | 0.00 | 0.20 | 0.05 | 89 | 1007.0 |
| 20260903130404 | 60 | 205 | 3.0 | 9.0 | 0.00 | 0.20 | 0.05 | 89 | 1007.0 |
| 20260903125403 | 59 | 206 | 1.0 | 6.0 | 0.00 | 0.20 | 0.05 | 91 | 1007.2 |
| 20260903124903 | 59 | 206 | 4.0 | 7.0 | 0.00 | 0.20 | 0.05 | 90 | 1007.3 |
| 20260903124403 | 59 | 205 | 5.0 | 9.0 | 0.00 | 0.20 | 0.05 | 90 | 1007.4 |
| 20260903123903 | 59 | 207 | 2.0 | 7.0 | 0.00 | 0.20 | 0.05 | 90 | 1007.4 |
| 20260903123403 | 59 | 213 | 4.0 | 12.0 | 0.00 | 0.20 | 0.05 | 88 | 1007.4 |
| 20260903122904 | 59 | 211 | 5.0 | 12.0 | 0.00 | 0.20 | 0.05 | 89 | 1007.7 |
| 20260903122403 | 60 | 205 | 3.0 | 8.0 | 0.00 | 0.20 | 0.05 | 89 | 1007.8 |
| 20260903121403 | 60 | 213 | 5.0 | 12.0 | 0.00 | 0.20 | 0.05 | 90 | 1007.7 |
| 20260903120904 | 60 | 204 | 6.0 | 12.0 | 0.00 | 0.20 | 0.05 | 91 | 1007.7 |
| 20260903120403 | 59 | 212 | 4.0 | 8.0 | 0.00 | 0.20 | 0.05 | 92 | 1007.8 |
| 20260903115903 | 59 | 213 | 5.0 | 8.0 | 0.00 | 0.20 | 0.05 | 91 | 1007.6 |
| 20260903115403 | 59 | 219 | 3.0 | 10.0 | 0.00 | 0.20 | 0.05 | 90 | 1007.5 |
| 20260903114903 | 59 | 210 | 6.0 | 10.0 | 0.00 | 0.20 | 0.05 | 91 | 1007.3 |
| 20260903114403 | 59 | 213 | 5.0 | 12.0 | 0.00 | 0.20 | 0.05 | 91 | 1007.4 |
| 20260903113903 | 59 | 205 | 5.0 | 10.0 | 0.00 | 0.20 | 0.05 | 91 | 1007.3 |
| 20260903113404 | 59 | 216 | 5.0 | 9.0 | 0.00 | 0.20 | 0.05 | 91 | 1007.3 |
| 20260903112903 | 59 | 206 | 5.0 | 13.0 | 0.00 | 0.20 | 0.05 | 90 | 1007.4 |
| 20260903112404 | 59 | 205 | 2.0 | 8.0 | 0.00 | 0.20 | 0.05 | 89 | 1007.4 |
| 20260903111903 | 59 | 209 | 4.0 | 12.0 | 0.00 | 0.20 | 0.05 | 88 | 1007.4 |
| 20260903110903 | 60 | 211 | 1.0 | 8.0 | 0.00 | 0.20 | 0.05 | 89 | 1007.4 |
| 20260903110404 | 61 | 211 | 3.0 | 9.0 | 0.00 | 0.20 | 0.05 | 89 | 1007.5 |
| 20260903105903 | 61 | 212 | 1.0 | 9.0 | 0.00 | 0.20 | 0.05 | 91 | 1007.5 |
| 20260903105404 | 60 | 213 | 0.0 | 7.0 | 0.00 | 0.20 | 0.05 | 90 | 1007.5 |
| 20260903104903 | 60 | 213 | 2.0 | 3.0 | 0.00 | 0.20 | 0.05 | 90 | 1007.6 |
| 20260903104404 | 60 | 213 | 0.0 | 6.0 | 0.00 | 0.20 | 0.05 | 90 | 1007.7 |
| 20260903103905 | 60 | 213 | 1.0 | 5.0 | 0.00 | 0.20 | 0.05 | 90 | 1007.6 |
| 20260903103404 | 60 | 213 | 2.0 | 7.0 | 0.00 | 0.20 | 0.05 | 91 | 1007.6 |
| 20260903102403 | 59 | 212 | 0.0 | 1.0 | 0.00 | 0.20 | 0.05 | 93 | 1007.5 |
| 20260903101904 | 59 | 212 | 1.0 | 6.0 | 0.00 | 0.20 | 0.05 | 93 | 1007.5 |
| 20260903101403 | 58 | 213 | 1.0 | 5.0 | 0.00 | 0.20 | 0.05 | 93 | 1007.6 |
| 20260903100904 | 58 | 213 | 0.0 | 1.0 | 0.00 | 0.20 | 0.05 | 92 | 1007.7 |
| 20260903100403 | 58 | 213 | 0.0 | 1.0 | 0.00 | 0.20 | 0.05 | 91 | 1007.7 |
| 20260903095404 | 59 | 213 | 1.0 | 3.0 | 0.00 | 0.20 | 0.05 | 89 | 1007.7 |
| 20260903094903 | 60 | 213 | 3.0 | 7.0 | 0.00 | 0.20 | 0.05 | 86 | 1007.8 |
| 20260903093903 | 60 | 207 | 1.0 | 13.0 | 0.00 | 0.20 | 0.05 | 88 | 1007.7 |
| 20260903093404 | 59 | 212 | 2.0 | 7.0 | 0.00 | 0.20 | 0.05 | 88 | 1007.8 |
| 20260903092903 | 59 | 212 | 1.0 | 3.0 | 0.00 | 0.20 | 0.05 | 88 | 1007.8 |
| 20260903091903 | 59 | 212 | 2.0 | 7.0 | 0.00 | 0.20 | 0.05 | 88 | 1007.7 |
| 20260903091403 | 59 | 212 | 2.0 | 8.0 | 0.00 | 0.20 | 0.05 | 87 | 1007.8 |
| 20260903090904 | 59 | 212 | 5.0 | 8.0 | 0.00 | 0.20 | 0.05 | 87 | 1007.7 |
| 20260903090404 | 59 | 211 | 3.0 | 9.0 | 0.00 | 0.20 | 0.05 | 86 | 1007.8 |
| 20260903085903 | 59 | 210 | 2.0 | 10.0 | 0.00 | 0.20 | 0.05 | 87 | 1008.1 |
| 20260903085403 | 59 | 210 | 6.0 | 9.0 | 0.00 | 0.20 | 0.05 | 86 | 1008.1 |
| 20260903084903 | 58 | 206 | 5.0 | 8.0 | 0.00 | 0.20 | 0.05 | 88 | 1008.0 |
| 20260903083904 | 58 | 208 | 5.0 | 12.0 | 0.00 | 0.20 | 0.05 | 89 | 1007.8 |
| 20260903083403 | 57 | 210 | 2.0 | 6.0 | 0.00 | 0.20 | 0.05 | 89 | 1007.7 |
| 20260903082903 | 57 | 210 | 5.0 | 7.0 | 0.00 | 0.20 | 0.05 | 89 | 1007.7 |
| 20260903082403 | 57 | 210 | 2.0 | 7.0 | 0.00 | 0.20 | 0.05 | 89 | 1007.7 |
| 20260903081903 | 57 | 210 | 2.0 | 7.0 | 0.00 | 0.20 | 0.05 | 90 | 1007.7 |
| 20260903081404 | 57 | 210 | 1.0 | 3.0 | 0.00 | 0.20 | 0.05 | 90 | 1007.6 |
| 20260903080905 | 57 | 210 | 0.0 | 3.0 | 0.00 | 0.20 | 0.05 | 90 | 1007.7 |
| 20260903080403 | 57 | 210 | 1.0 | 5.0 | 0.00 | 0.20 | 0.05 | 90 | 1007.6 |
| 20260903075904 | 56 | 210 | 2.0 | 5.0 | 0.00 | 0.20 | 0.05 | 90 | 1007.6 |
| 20260903075404 | 56 | 210 | 2.0 | 7.0 | 0.00 | 0.20 | 0.05 | 90 | 1007.7 |
| 20260903074904 | 56 | 207 | 2.0 | 7.0 | 0.00 | 0.20 | 0.05 | 90 | 1007.6 |
| 20260903073904 | 56 | 212 | 2.0 | 6.0 | 0.00 | 0.20 | 0.05 | 91 | 1007.7 |
| 20260903073403 | 56 | 212 | 1.0 | 6.0 | 0.00 | 0.20 | 0.05 | 91 | 1007.8 |
| 20260903072903 | 56 | 212 | 3.0 | 10.0 | 0.00 | 0.20 | 0.05 | 91 | 1007.6 |
| 20260903072404 | 56 | 212 | 4.0 | 7.0 | 0.00 | 0.20 | 0.05 | 92 | 1007.6 |
| 20260903071404 | 55 | 213 | 1.0 | 6.0 | 0.00 | 0.20 | 0.05 | 92 | 1007.4 |
| 20260903070904 | 55 | 213 | 1.0 | 6.0 | 0.00 | 0.20 | 0.05 | 92 | 1007.5 |
| 20260903070404 | 55 | 213 | 2.0 | 7.0 | 0.00 | 0.20 | 0.05 | 92 | 1007.5 |
| 20260903065904 | 55 | 213 | 1.0 | 6.0 | 0.00 | 0.20 | 0.05 | 92 | 1007.5 |
| 20260903065403 | 55 | 213 | 2.0 | 7.0 | 0.00 | 0.20 | 0.05 | 92 | 1007.4 |
| 20260903064904 | 55 | 213 | 3.0 | 6.0 | 0.00 | 0.20 | 0.05 | 92 | 1007.4 |
| 20260903064403 | 55 | 213 | 0.0 | 2.0 | 0.00 | 0.20 | 0.05 | 92 | 1007.3 |
| 20260903063903 | 55 | 213 | 1.0 | 3.0 | 0.00 | 0.20 | 0.05 | 92 | 1007.3 |
| 20260903063403 | 55 | 213 | 1.0 | 3.0 | 0.00 | 0.20 | 0.05 | 92 | 1007.3 |
| 20260903062904 | 55 | 213 | 0.0 | 3.0 | 0.00 | 0.20 | 0.05 | 92 | 1007.2 |
| 20260903062404 | 55 | 213 | 0.0 | 0.0 | 0.00 | 0.20 | 0.05 | 92 | 1007.1 |
| 20260903061903 | 55 | 213 | 0.0 | 3.0 | 0.00 | 0.20 | 0.05 | 92 | 1007.3 |
| 20260903061404 | 55 | 213 | 2.0 | 7.0 | 0.00 | 0.20 | 0.05 | 92 | 1007.3 |
| 20260903060904 | 55 | 212 | 1.0 | 7.0 | 0.00 | 0.20 | 0.05 | 92 | 1007.3 |
| 20260903060404 | 55 | 212 | 1.0 | 7.0 | 0.00 | 0.20 | 0.05 | 93 | 1007.1 |
| 20260903055903 | 55 | 211 | 3.0 | 8.0 | 0.00 | 0.20 | 0.05 | 93 | 1007.0 |
| 20260903055404 | 55 | 211 | 2.0 | 7.0 | 0.00 | 0.20 | 0.05 | 93 | 1007.0 |
| 20260903054904 | 55 | 211 | 2.0 | 3.0 | 0.00 | 0.20 | 0.05 | 93 | 1006.9 |
| 20260903053904 | 55 | 211 | 0.0 | 1.0 | 0.00 | 0.20 | 0.05 | 93 | 1006.7 |
| 20260903053404 | 55 | 211 | 0.0 | 3.0 | 0.00 | 0.20 | 0.05 | 93 | 1006.7 |
| 20260903052903 | 55 | 211 | 1.0 | 3.0 | 0.00 | 0.20 | 0.05 | 93 | 1006.7 |
| 20260903052403 | 55 | 211 | 0.0 | 2.0 | 0.00 | 0.20 | 0.05 | 93 | 1006.6 |
| 20260903051904 | 55 | 211 | 0.0 | 2.0 | 0.00 | 0.20 | 0.05 | 93 | 1006.7 |
| 20260903051403 | 55 | 211 | 2.0 | 6.0 | 0.00 | 0.20 | 0.05 | 93 | 1006.8 |
| 20260903050903 | 55 | 211 | 0.0 | 3.0 | 0.00 | 0.20 | 0.05 | 93 | 1006.5 |
| 20260903050403 | 55 | 211 | 0.0 | 3.0 | 0.00 | 0.20 | 0.05 | 93 | 1006.5 |
| 20260903045904 | 56 | 211 | 0.0 | 3.0 | 0.00 | 0.20 | 0.05 | 93 | 1006.5 |
| 20260903045404 | 56 | 211 | 0.0 | 5.0 | 0.00 | 0.20 | 0.05 | 93 | 1006.3 |
| 20260903044903 | 56 | 211 | 1.0 | 5.0 | 0.00 | 0.20 | 0.05 | 93 | 1006.4 |
| 20260903044405 | 56 | 211 | 0.0 | 7.0 | 0.00 | 0.20 | 0.05 | 93 | 1006.2 |
| 20260903043903 | 56 | 212 | 2.0 | 7.0 | 0.00 | 0.20 | 0.05 | 93 | 1006.2 |
| 20260903043404 | 56 | 209 | 2.0 | 6.0 | 0.00 | 0.20 | 0.05 | 93 | 1006.3 |
| 20260903042403 | 56 | 210 | 1.0 | 5.0 | 0.00 | 0.20 | 0.05 | 94 | 1006.3 |
| 20260903041904 | 56 | 210 | 1.0 | 7.0 | 0.00 | 0.20 | 0.05 | 94 | 1006.3 |
| 20260903041404 | 56 | 199 | 3.0 | 8.0 | 0.00 | 0.20 | 0.05 | 95 | 1006.5 |
| 20260903040903 | 56 | 192 | 1.0 | 7.0 | 0.00 | 0.20 | 0.05 | 95 | 1006.3 |
| 20260903040404 | 56 | 191 | 2.0 | 10.0 | 0.00 | 0.20 | 0.05 | 95 | 1006.3 |
| 20260903035904 | 56 | 226 | 3.0 | 7.0 | 0.00 | 0.20 | 0.05 | 95 | 1006.4 |
| 20260903034904 | 57 | 228 | 2.0 | 5.0 | 0.00 | 0.20 | 0.05 | 95 | 1006.3 |
| 20260903034405 | 57 | 228 | 1.0 | 8.0 | 0.00 | 0.20 | 0.05 | 95 | 1006.2 |
| 20260903033904 | 57 | 234 | 2.0 | 5.0 | 0.00 | 0.20 | 0.05 | 96 | 1006.0 |
| 20260903033404 | 57 | 229 | 3.0 | 8.0 | 0.00 | 0.20 | 0.05 | 96 | 1006.0 |
| 20260903032904 | 57 | 207 | 2.0 | 13.0 | 0.00 | 0.20 | 0.05 | 96 | 1005.8 |
| 20260903032404 | 58 | 217 | 7.0 | 12.0 | 0.00 | 0.20 | 0.05 | 96 | 1005.6 |
| 20260903030904 | 58 | 214 | 5.0 | 12.0 | 0.00 | 0.20 | 0.05 | 96 | 1005.4 |
| 20260903025904 | 58 | 208 | 5.0 | 10.0 | 0.00 | 0.20 | 0.05 | 96 | 1005.3 |
| 20260903025404 | 58 | 198 | 6.0 | 12.0 | 0.00 | 0.20 | 0.05 | 96 | 1005.1 |
| 20260903024904 | 58 | 211 | 6.0 | 10.0 | 0.00 | 0.20 | 0.05 | 96 | 1005.1 |
| 20260903024404 | 58 | 216 | 3.0 | 10.0 | 0.00 | 0.20 | 0.05 | 97 | 1005.3 |
| 20260903023904 | 58 | 206 | 6.0 | 12.0 | 0.00 | 0.20 | 0.05 | 97 | 1005.4 |
| 20260903022904 | 58 | 209 | 6.0 | 14.0 | 0.01 | 0.20 | 0.05 | 97 | 1005.4 |
| 20260903022403 | 58 | 213 | 5.0 | 9.0 | 0.01 | 0.20 | 0.05 | 97 | 1005.5 |
| 20260903021904 | 58 | 206 | 4.0 | 12.0 | 0.01 | 0.20 | 0.05 | 97 | 1005.5 |
| 20260903021404 | 58 | 205 | 7.0 | 17.0 | 0.01 | 0.20 | 0.05 | 97 | 1005.3 |
| 20260903015904 | 58 | 200 | 3.0 | 7.0 | 0.01 | 0.20 | 0.05 | 97 | 1005.3 |
| 20260903014905 | 58 | 201 | 6.0 | 10.0 | 0.02 | 0.20 | 0.05 | 97 | 1005.3 |
| 20260903014405 | 58 | 215 | 2.0 | 8.0 | 0.02 | 0.20 | 0.05 | 97 | 1005.3 |
| 20260903013905 | 58 | 215 | 1.0 | 7.0 | 0.02 | 0.20 | 0.05 | 97 | 1005.2 |
| 20260903013404 | 58 | 213 | 3.0 | 7.0 | 0.02 | 0.20 | 0.05 | 97 | 1005.2 |
| 20260903012903 | 58 | 214 | 2.0 | 8.0 | 0.01 | 0.20 | 0.04 | 96 | 1005.2 |
| 20260903012404 | 58 | 216 | 1.0 | 3.0 | 0.01 | 0.20 | 0.04 | 96 | 1005.1 |
| 20260903011904 | 58 | 216 | 0.0 | 5.0 | 0.01 | 0.20 | 0.04 | 96 | 1005.0 |
| 20260903011405 | 58 | 216 | 5.0 | 9.0 | 0.01 | 0.20 | 0.04 | 96 | 1004.9 |
| 20260903010905 | 58 | 215 | 4.0 | 7.0 | 0.01 | 0.20 | 0.04 | 97 | 1005.1 |
| 20260903010405 | 58 | 216 | 1.0 | 5.0 | 0.01 | 0.20 | 0.04 | 96 | 1005.2 |
| 20260903005905 | 58 | 216 | 2.0 | 6.0 | 0.01 | 0.20 | 0.04 | 97 | 1005.1 |
| 20260903005405 | 58 | 216 | 2.0 | 6.0 | 0.01 | 0.20 | 0.04 | 97 | 1005.1 |
| 20260903004905 | 58 | 216 | 1.0 | 3.0 | 0.00 | 0.19 | 0.03 | 97 | 1005.2 |
| 20260903003905 | 58 | 217 | 2.0 | 6.0 | 0.00 | 0.19 | 0.03 | 97 | 1005.1 |
| 20260903003405 | 58 | 217 | 3.0 | 6.0 | 0.00 | 0.19 | 0.03 | 97 | 1005.2 |
| 20260903002904 | 58 | 217 | 4.0 | 8.0 | 0.01 | 0.19 | 0.03 | 96 | 1005.3 |
| 20260903002405 | 58 | 217 | 4.0 | 10.0 | 0.01 | 0.19 | 0.03 | 96 | 1005.1 |
| 20260903001904 | 57 | 218 | 1.0 | 3.0 | 0.01 | 0.19 | 0.03 | 96 | 1004.9 |
| 20260903001404 | 57 | 218 | 0.0 | 3.0 | 0.02 | 0.19 | 0.03 | 96 | 1005.0 |
| 20260903000906 | 57 | 218 | 1.0 | 3.0 | 0.02 | 0.19 | 0.03 | 96 | 1005.1 |
| 20260903000405 | 57 | 218 | 0.0 | 1.0 | 0.03 | 0.19 | 0.03 | 96 | 1004.9 |
| 20260902235904 | 57 | 218 | 0.0 | 0.0 | 0.03 | 0.19 | 0.03 | 96 | 1004.9 |
| 20260902234905 | 57 | 218 | 0.0 | 1.0 | 0.04 | 0.19 | 0.03 | 96 | 1004.7 |
| 20260902234405 | 57 | 218 | 0.0 | 1.0 | 0.05 | 0.19 | 0.03 | 96 | 1004.7 |
| 20260902233905 | 57 | 218 | 0.0 | 1.0 | 0.05 | 0.19 | 0.03 | 96 | 1004.7 |
| 20260902233405 | 56 | 218 | 0.0 | 0.0 | 0.06 | 0.19 | 0.03 | 96 | 1004.7 |
| 20260902232906 | 56 | 218 | 0.0 | 0.0 | 0.07 | 0.18 | 0.02 | 96 | 1004.6 |
| 20260902232404 | 56 | 218 | 1.0 | 3.0 | 0.08 | 0.18 | 0.02 | 96 | 1004.5 |
| 20260902231905 | 56 | 218 | 0.0 | 3.0 | 0.09 | 0.18 | 0.02 | 96 | 1004.5 |
| 20260902231405 | 56 | 218 | 1.0 | 3.0 | 0.09 | 0.17 | 0.02 | 95 | 1004.4 |
| 20260902230904 | 56 | 218 | 0.0 | 1.0 | 0.08 | 0.17 | 0.01 | 95 | 1004.4 |
| 20260902225904 | 56 | 218 | 2.0 | 3.0 | 0.07 | 0.16 | 0.16 | 95 | 1004.4 |
| 20260902225405 | 56 | 218 | 1.0 | 5.0 | 0.06 | 0.15 | 0.15 | 95 | 1004.3 |
| 20260902224906 | 56 | 218 | 2.0 | 7.0 | 0.07 | 0.15 | 0.15 | 95 | 1004.2 |
| 20260902224405 | 56 | 218 | 2.0 | 5.0 | 0.07 | 0.14 | 0.14 | 95 | 1004.3 |
| 20260902223905 | 56 | 218 | 1.0 | 3.0 | 0.08 | 0.14 | 0.14 | 95 | 1004.3 |
| 20260902223405 | 56 | 218 | 1.0 | 6.0 | 0.07 | 0.13 | 0.13 | 95 | 1004.3 |
| 20260902222404 | 56 | 218 | 0.0 | 0.0 | 0.05 | 0.10 | 0.10 | 95 | 1004.3 |
| 20260902221904 | 56 | 218 | 0.0 | 0.0 | 0.06 | 0.09 | 0.09 | 94 | 1004.4 |
| 20260902221406 | 56 | 218 | 0.0 | 0.0 | 0.06 | 0.09 | 0.09 | 94 | 1004.4 |
| 20260902220905 | 56 | 218 | 0.0 | 0.0 | 0.06 | 0.09 | 0.09 | 94 | 1004.4 |
| 20260902220405 | 56 | 218 | 0.0 | 3.0 | 0.06 | 0.09 | 0.09 | 94 | 1004.4 |
| 20260902215905 | 56 | 218 | 2.0 | 6.0 | 0.07 | 0.09 | 0.09 | 94 | 1004.4 |
| 20260902215405 | 57 | 218 | 0.0 | 0.0 | 0.08 | 0.09 | 0.09 | 94 | 1004.3 |
| 20260902214905 | 57 | 218 | 1.0 | 3.0 | 0.07 | 0.08 | 0.08 | 94 | 1004.4 |
| 20260902214405 | 57 | 218 | 0.0 | 0.0 | 0.06 | 0.07 | 0.07 | 94 | 1004.6 |
| 20260902213905 | 57 | 218 | 0.0 | 0.0 | 0.06 | 0.06 | 0.06 | 94 | 1004.8 |
| 20260902213405 | 57 | 218 | 0.0 | 0.0 | 0.06 | 0.06 | 0.06 | 93 | 1004.8 |
| 20260902212905 | 57 | 218 | 0.0 | 0.0 | 0.05 | 0.06 | 0.06 | 93 | 1004.8 |
| 20260902212405 | 57 | 218 | 0.0 | 0.0 | 0.06 | 0.06 | 0.06 | 93 | 1004.8 |
| 20260902211405 | 57 | 218 | 0.0 | 0.0 | 0.03 | 0.03 | 0.03 | 93 | 1005.0 |
| 20260902210905 | 57 | 218 | 0.0 | 0.0 | 0.03 | 0.03 | 0.03 | 93 | 1005.0 |
| 20260902210405 | 57 | 218 | 0.0 | 0.0 | 0.02 | 0.02 | 0.02 | 93 | 1005.1 |
| 20260902205906 | 57 | 218 | 0.0 | 0.0 | 0.02 | 0.02 | 0.02 | 93 | 1005.2 |
| 20260902204905 | 57 | 218 | 0.0 | 1.0 | 0.01 | 0.01 | 0.01 | 92 | 1005.4 |
| 20260902204405 | 57 | 218 | 0.0 | 3.0 | 0.01 | 0.01 | 0.01 | 92 | 1005.3 |
| 20260902203905 | 57 | 218 | 2.0 | 3.0 | 0.01 | 0.01 | 0.01 | 92 | 1005.5 |
| 20260902203405 | 57 | 218 | 1.0 | 3.0 | 0.01 | 0.01 | 0.01 | 92 | 1005.7 |
| 20260902202905 | 57 | 218 | 1.0 | 3.0 | 0.01 | 0.01 | 0.01 | 91 | 1005.7 |
| 20260902202405 | 58 | 218 | 1.0 | 3.0 | 0.00 | 0.00 | 0.00 | 91 | 1005.8 |
| 20260902201405 | 58 | 218 | 2.0 | 5.0 | 0.00 | 0.00 | 0.00 | 90 | 1005.8 |
| 20260902200405 | 58 | 218 | 2.0 | 5.0 | 0.00 | 0.00 | 0.00 | 90 | 1005.7 |
| 20260902195904 | 58 | 218 | 2.0 | 5.0 | 0.00 | 0.00 | 0.00 | 89 | 1005.7 |
| 20260902195404 | 58 | 226 | 5.0 | 9.0 | 0.00 | 0.00 | 0.00 | 89 | 1005.8 |
| 20260902194904 | 59 | 245 | 3.0 | 6.0 | 0.00 | 0.00 | 0.00 | 89 | 1005.8 |
| 20260902194404 | 59 | 245 | 3.0 | 6.0 | 0.00 | 0.00 | 0.00 | 89 | 1005.8 |
| 20260902193904 | 59 | 246 | 0.0 | 0.0 | 0.00 | 0.00 | 0.00 | 89 | 1005.9 |
| 20260902193404 | 59 | 246 | 0.0 | 2.0 | 0.00 | 0.00 | 0.00 | 89 | 1005.9 |
| 20260902192904 | 59 | 246 | 0.0 | 3.0 | 0.00 | 0.00 | 0.00 | 89 | 1005.9 |
| 20260902191904 | 59 | 246 | 0.0 | 1.0 | 0.00 | 0.00 | 0.00 | 89 | 1006.0 |
| 20260902191404 | 59 | 246 | 1.0 | 3.0 | 0.00 | 0.00 | 0.00 | 89 | 1005.8 |
| 20260902190904 | 59 | 246 | 2.0 | 3.0 | 0.00 | 0.00 | 0.00 | 89 | 1006.0 |
| 20260902185904 | 59 | 256 | 2.0 | 6.0 | 0.00 | 0.00 | 0.00 | 89 | 1006.2 |
| 20260902185405 | 59 | 295 | 0.0 | 2.0 | 0.00 | 0.00 | 0.00 | 89 | 1006.0 |
| 20260902184904 | 59 | 295 | 1.0 | 3.0 | 0.00 | 0.00 | 0.00 | 89 | 1006.2 |
| 20260902184405 | 59 | 295 | 1.0 | 3.0 | 0.00 | 0.00 | 0.00 | 90 | 1006.3 |
| 20260902183904 | 59 | 296 | 1.0 | 3.0 | 0.00 | 0.00 | 0.00 | 90 | 1006.3 |
| 20260902183404 | 59 | 296 | 0.0 | 5.0 | 0.00 | 0.00 | 0.00 | 91 | 1006.3 |
| 20260902182903 | 59 | 296 | 0.0 | 3.0 | 0.00 | 0.00 | 0.00 | 91 | 1006.3 |
| 20260902182404 | 59 | 296 | 0.0 | 0.0 | 0.00 | 0.00 | 0.00 | 91 | 1006.3 |
| 20260902181904 | 59 | 296 | 0.0 | 5.0 | 0.00 | 0.00 | 0.00 | 91 | 1006.4 |
| 20260902181404 | 59 | 355 | 0.0 | 0.0 | 0.00 | 0.00 | 0.00 | 91 | 1006.3 |
| 20260902180904 | 59 | 355 | 1.0 | 3.0 | 0.00 | 0.00 | 0.00 | 91 | 1006.3 |
| 20260902180404 | 59 | 355 | 0.0 | 0.0 | 0.00 | 0.00 | 0.00 | 91 | 1006.4 |
| 20260902175904 | 59 | 355 | 0.0 | 0.0 | 0.00 | 0.00 | 0.00 | 91 | 1006.2 |
| 20260902175404 | 59 | 355 | 0.0 | 0.0 | 0.00 | 0.00 | 0.00 | 91 | 1006.3 |
| 20260902174904 | 59 | 355 | 0.0 | 0.0 | 0.00 | 0.00 | 0.00 | 91 | 1006.3 |